Location: Cheching
(60.0667°N, 164.2167°W)
Time: 01:04:07
(UTC+00:00)

O/OREOS (USA 219) - Pass Details

Date: 20 January 2021
Orbit: 621 x 646 km, 72.0° (Epoch: 22 May)

Event Time Altitude Azimuth Distance (km) Brightness Sun altitude
Rises 17:13:48 0° 161° (SSE) 2,953 ? -16.5°
Reaches altitude 10° 17:16:44 10° 142° (SE) 2,048 ? -16.1°
Maximum altitude 17:19:41 17° 102° (ESE) 1,630 ? -15.8°
Drops below altitude 10° 17:22:39 10° 62° (ENE) 2,055 ? -15.4°
Sets 17:25:35 0° 42° (NE) 2,967 ? -15.1°
